TGW289 WADD-WSSS

Flight info

Callsign TGW289
Flight time N/A
Altitude 38000
Route BORGI1A BORGI DCT UDONO M635 SURGA T23 UGEBO UGEBO1A
Aircraft B789/H-SDE1E2E3FGHIJ2J3J4J5M1RWXY/LB1D1

Departure

Time 2026-04-28 08:18
Airport Denpasar I Gusti Ngurah Rai International Airport (WADD)

Arrival

Time N/A
Airport Singapore Changi Airport (WSSS)
Time Latitude Longitude Altitude Speed Heading
2026-04-28 08:08 -8.74552 115.16868 38 ft 0 kts 358°
2026-04-28 08:10 -8.74555 115.16868 38 ft 2 kts 358°
2026-04-28 08:10 -8.74574 115.16869 38 ft 3 kts 358°
2026-04-28 08:10 -8.74594 115.16870 38 ft 3 kts 358°
2026-04-28 08:10 -8.74615 115.16871 38 ft 3 kts 358°
2026-04-28 08:11 -8.74634 115.16872 38 ft 2 kts 357°
2026-04-28 08:11 -8.74650 115.16873 38 ft 3 kts 345°
2026-04-28 08:11 -8.74664 115.16879 37 ft 3 kts 312°
2026-04-28 08:11 -8.74671 115.16891 37 ft 3 kts 277°
2026-04-28 08:12 -8.74671 115.16911 37 ft 3 kts 267°
2026-04-28 08:12 -8.74671 115.16922 37 ft 0 kts 267°
2026-04-28 08:14 -8.74671 115.16915 37 ft 6 kts 268°
2026-04-28 08:14 -8.74675 115.16817 37 ft 22 kts 268°
2026-04-28 08:15 -8.74682 115.16648 37 ft 24 kts 267°
2026-04-28 08:15 -8.74690 115.16477 38 ft 24 kts 268°
2026-04-28 08:15 -8.74696 115.16306 38 ft 24 kts 268°
2026-04-28 08:15 -8.74706 115.16137 38 ft 24 kts 264°
2026-04-28 08:16 -8.74711 115.15969 38 ft 24 kts 268°
2026-04-28 08:16 -8.74717 115.15800 38 ft 24 kts 268°
2026-04-28 08:16 -8.74725 115.15631 38 ft 24 kts 267°
2026-04-28 08:16 -8.74734 115.15465 38 ft 21 kts 265°
2026-04-28 08:17 -8.74812 115.15391 36 ft 17 kts 181°
2026-04-28 08:17 -8.74897 115.15437 34 ft 14 kts 105°
2026-04-28 08:17 -8.74888 115.15607 34 ft 41 kts 89°
2026-04-28 08:17 -8.74869 115.16110 34 ft 102 kts 88°
2026-04-28 08:18 -8.74833 115.17028 34 ft 157 kts 88°
2026-04-28 08:18 -8.74783 115.18226 440 ft 170 kts 88°
2026-04-28 08:18 -8.74739 115.19445 1239 ft 175 kts 89°
2026-04-28 08:18 -8.74682 115.20683 1939 ft 189 kts 88°
2026-04-28 08:19 -8.74145 115.21997 2399 ft 225 kts 46°
2026-04-28 08:19 -8.72644 115.22696 3014 ft 260 kts
2026-04-28 08:19 -8.70887 115.22223 4180 ft 270 kts 326°
2026-04-28 08:19 -8.69581 115.20833 5381 ft 279 kts 307°
2026-04-28 08:20 -8.68435 115.19220 6563 ft 285 kts 308°
2026-04-28 08:20 -8.67130 115.17696 7714 ft 289 kts 317°
2026-04-28 08:20 -8.65623 115.16328 8793 ft 294 kts 321°
2026-04-28 08:20 -8.64066 115.14958 9860 ft 299 kts 319°
2026-04-28 08:21 -8.62507 115.13489 10613 ft 318 kts 317°
2026-04-28 08:21 -8.60856 115.11895 11010 ft 346 kts 317°
2026-04-28 08:21 -8.59035 115.10166 11334 ft 373 kts 318°
2026-04-28 08:21 -8.57098 115.08350 12052 ft 383 kts 318°
2026-04-28 08:22 -8.55141 115.06507 13019 ft 387 kts 318°
2026-04-28 08:22 -8.53167 115.04639 13957 ft 392 kts 318°
2026-04-28 08:22 -8.51162 115.02745 14855 ft 396 kts 318°
2026-04-28 08:22 -8.49134 115.00833 15772 ft 400 kts 318°
2026-04-28 08:23 -8.47085 114.98922 16631 ft 404 kts 321°
2026-04-28 08:23 -8.44772 114.97357 17370 ft 407 kts 330°
2026-04-28 08:23 -8.42342 114.95877 18158 ft 410 kts 330°
2026-04-28 08:23 -8.39893 114.94378 18891 ft 415 kts 330°
2026-04-28 08:24 -8.37411 114.92850 19575 ft 419 kts 329°
2026-04-28 08:24 -8.34902 114.91307 20245 ft 424 kts 329°
2026-04-28 08:24 -8.32352 114.89776 20881 ft 429 kts 330°
2026-04-28 08:24 -8.29757 114.88264 21505 ft 433 kts 331°
2026-04-28 08:25 -8.27144 114.86727 22094 ft 438 kts 330°
2026-04-28 08:25 -8.24507 114.85150 22669 ft 442 kts 330°
2026-04-28 08:25 -8.21844 114.83562 23195 ft 446 kts 330°
2026-04-28 08:26 -8.16493 114.80398 24193 ft 453 kts 330°
2026-04-28 08:26 -8.13758 114.78775 24666 ft 457 kts 330°
2026-04-28 08:26 -8.11011 114.77144 25136 ft 460 kts 330°
2026-04-28 08:26 -8.08241 114.75502 25591 ft 463 kts 330°
2026-04-28 08:27 -8.05453 114.73851 26028 ft 466 kts 330°
2026-04-28 08:27 -8.02648 114.72189 26464 ft 469 kts 330°
2026-04-28 08:27 -7.99818 114.70512 26892 ft 472 kts 330°
2026-04-28 08:27 -7.97009 114.68847 27266 ft 476 kts 330°
2026-04-28 08:28 -7.94143 114.67151 27657 ft 479 kts 330°
2026-04-28 08:28 -7.91269 114.65449 28036 ft 482 kts 330°
2026-04-28 08:28 -7.88324 114.63814 28379 ft 484 kts 333°
2026-04-28 08:28 -7.85341 114.62200 28740 ft 487 kts 332°
2026-04-28 08:29 -7.82372 114.60551 29095 ft 490 kts 332°
2026-04-28 08:29 -7.79369 114.58911 29450 ft 492 kts 333°
2026-04-28 08:29 -7.76338 114.57284 29788 ft 495 kts 333°
2026-04-28 08:29 -7.73296 114.55640 30095 ft 497 kts 332°
2026-04-28 08:30 -7.70244 114.53974 30411 ft 500 kts 332°
2026-04-28 08:30 -7.67327 114.52065 30702 ft 502 kts 321°
2026-04-28 08:30 -7.64848 114.49635 30986 ft 506 kts 310°
2026-04-28 08:30 -7.62837 114.46730 31252 ft 509 kts 299°
2026-04-28 08:31 -7.61386 114.43458 31512 ft 512 kts 291°
2026-04-28 08:31 -7.60126 114.40081 31741 ft 515 kts 291°
2026-04-28 08:31 -7.58892 114.36694 32029 ft 516 kts 291°
2026-04-28 08:31 -7.57577 114.33341 32395 ft 513 kts 298°
2026-04-28 08:32 -7.55718 114.30294 32747 ft 511 kts 309°
2026-04-28 08:32 -7.53334 114.27648 33097 ft 508 kts 320°
2026-04-28 08:32 -7.50560 114.25465 33420 ft 507 kts 325°
2026-04-28 08:32 -7.47703 114.23376 33739 ft 506 kts 325°
2026-04-28 08:33 -7.44886 114.21342 34108 ft 505 kts 325°
2026-04-28 08:33 -7.42031 114.19280 34451 ft 504 kts 325°
2026-04-28 08:33 -7.39187 114.17210 34797 ft 504 kts 325°
2026-04-28 08:33 -7.36348 114.15142 35122 ft 503 kts 325°
2026-04-28 08:34 -7.33511 114.13084 35452 ft 503 kts 325°
2026-04-28 08:34 -7.30668 114.11026 35770 ft 502 kts 325°
2026-04-28 08:34 -7.27837 114.08972 36085 ft 502 kts 325°
2026-04-28 08:34 -7.25037 114.06938 36378 ft 502 kts 325°
2026-04-28 08:35 -7.22205 114.04884 36657 ft 502 kts 325°
2026-04-28 08:35 -7.19386 114.02839 37035 ft 499 kts 325°
2026-04-28 08:35 -7.16577 114.00803 37466 ft 495 kts 325°
2026-04-28 08:35 -7.13801 113.98791 37837 ft 492 kts 325°
2026-04-28 08:36 -7.11024 113.96780 37945 ft 494 kts 325°
2026-04-28 08:36 -7.05444 113.92733 37950 ft 491 kts 325°
2026-04-28 08:37 -6.99922 113.88735 37956 ft 489 kts 325°
2026-04-28 08:37 -6.94441 113.84767 37949 ft 489 kts 325°
2026-04-28 08:38 -6.88914 113.80766 37959 ft 490 kts 325°
2026-04-28 08:38 -6.83369 113.76755 37956 ft 491 kts 325°
2026-04-28 08:39 -6.77829 113.72747 37952 ft 491 kts 325°
2026-04-28 08:39 -6.72295 113.68746 37954 ft 489 kts 325°
2026-04-28 08:40 -6.66813 113.64783 37951 ft 488 kts 325°
2026-04-28 08:40 -6.61308 113.60804 37951 ft 488 kts 325°
2026-04-28 08:41 -6.55776 113.56808 37965 ft 490 kts 325°
2026-04-28 08:41 -6.50227 113.52800 37966 ft 491 kts 325°
2026-04-28 08:42 -6.44718 113.48821 37965 ft 490 kts 325°
2026-04-28 08:42 -6.39190 113.44832 37968 ft 489 kts 325°
2026-04-28 08:43 -6.33666 113.40844 37963 ft 489 kts 326°
2026-04-28 08:43 -6.28131 113.36852 37958 ft 490 kts 325°
2026-04-28 08:44 -6.23165 113.32194 37993 ft 493 kts 308°
2026-04-28 08:44 -6.19001 113.26765 37986 ft 493 kts 309°
2026-04-28 08:45 -6.14828 113.21328 37992 ft 491 kts 309°
2026-04-28 08:45 -6.10652 113.15897 37991 ft 490 kts 309°
2026-04-28 08:46 -6.06481 113.10465 37991 ft 492 kts 309°
2026-04-28 08:46 -6.02317 113.05051 37988 ft 493 kts 309°
2026-04-28 08:47 -5.98124 112.99595 37990 ft 494 kts 309°
2026-04-28 08:47 -5.93911 112.94122 37987 ft 496 kts 309°
2026-04-28 08:48 -5.89690 112.88631 37801 ft 496 kts 309°
2026-04-28 08:48 -5.85495 112.83182 37799 ft 492 kts 309°
2026-04-28 08:49 -5.81333 112.77774 37804 ft 495 kts 309°
2026-04-28 08:49 -5.77105 112.72284 37806 ft 497 kts 309°
2026-04-28 08:50 -5.72887 112.66807 37805 ft 495 kts 309°
2026-04-28 08:50 -5.68701 112.61373 37802 ft 495 kts 309°
2026-04-28 08:51 -5.64492 112.55911 37802 ft 495 kts 309°
2026-04-28 08:51 -5.60280 112.50446 37804 ft 495 kts 309°
2026-04-28 08:52 -5.56061 112.44976 37804 ft 495 kts 309°
2026-04-28 08:52 -5.51852 112.39517 37803 ft 495 kts 309°
2026-04-28 08:53 -5.47657 112.34080 37804 ft 496 kts 309°
2026-04-28 08:53 -5.43445 112.28621 37805 ft 495 kts 309°
2026-04-28 08:54 -5.39233 112.23162 37805 ft 494 kts 309°
2026-04-28 08:54 -5.35052 112.17750 37801 ft 494 kts 309°
2026-04-28 08:55 -5.30855 112.12312 37799 ft 494 kts 309°
2026-04-28 08:55 -5.26634 112.06849 37802 ft 496 kts 309°
2026-04-28 08:56 -5.22402 112.01370 37805 ft 496 kts 309°
2026-04-28 08:56 -5.18178 111.95904 37804 ft 495 kts 309°
2026-04-28 08:57 -5.13987 111.90483 37804 ft 495 kts 309°
2026-04-28 08:57 -5.09770 111.85029 37804 ft 495 kts 309°
2026-04-28 08:58 -5.05542 111.79563 37803 ft 495 kts 309°
2026-04-28 08:58 -5.01315 111.74096 37806 ft 496 kts 309°
2026-04-28 08:59 -4.97110 111.68661 37805 ft 497 kts 309°
2026-04-28 08:59 -4.92875 111.63190 37803 ft 497 kts 309°
2026-04-28 09:00 -4.88647 111.57727 37801 ft 495 kts 309°
2026-04-28 09:00 -4.84421 111.52270 37797 ft 494 kts 309°
2026-04-28 09:01 -4.80237 111.46867 37794 ft 495 kts 309°
2026-04-28 09:01 -4.76000 111.41397 37798 ft 497 kts 309°
2026-04-28 09:02 -4.71755 111.35918 37803 ft 498 kts 309°
2026-04-28 09:02 -4.67511 111.30442 37804 ft 496 kts 309°
2026-04-28 09:03 -4.63313 111.25025 37800 ft 495 kts 309°